JAF248 LKPR-LRTR

Flight info

Callsign JAF248
Flight time 1h 21m
Altitude 35000
Route VOZ DCT NELPA DCT PISAM DCT PESAT DCT BUG DCT TEGRI
Aircraft B738/M-SDE2E3FGHIRWXY/LB1

Departure

Time 2026-04-22 17:09
Airport Václav Havel Airport Prague (LKPR)

Arrival

Time 2026-04-22 18:31
Airport Timișoara Traian Vuia International Airport (LRTR)
Time Latitude Longitude Altitude Speed Heading
2026-04-22 17:09 49.82994 14.21083 15704 ft 354 kts 123°
2026-04-22 17:09 49.81056 14.25233 16690 ft 357 kts 121°
2026-04-22 17:10 49.79583 14.28369 17409 ft 361 kts 122°
2026-04-22 17:10 49.78073 14.31500 18114 ft 365 kts 122°
2026-04-22 17:10 49.76552 14.34614 18793 ft 368 kts 123°
2026-04-22 17:10 49.74998 14.37779 19478 ft 371 kts 123°
2026-04-22 17:11 49.73426 14.40971 20139 ft 374 kts 123°
2026-04-22 17:11 49.71835 14.44196 20765 ft 378 kts 123°
2026-04-22 17:11 49.70237 14.47431 21388 ft 381 kts 123°
2026-04-22 17:11 49.68622 14.50701 21995 ft 384 kts 123°
2026-04-22 17:12 49.66999 14.53990 22587 ft 386 kts 122°
2026-04-22 17:12 49.65453 14.57398 23152 ft 387 kts 118°
2026-04-22 17:12 49.64053 14.60905 23693 ft 389 kts 116°
2026-04-22 17:12 49.62651 14.64505 24232 ft 392 kts 117°
2026-04-22 17:13 49.61202 14.68101 24780 ft 395 kts 118°
2026-04-22 17:13 49.59549 14.71545 25301 ft 401 kts 127°
2026-04-22 17:13 49.58250 14.73598 25634 ft 407 kts 133°
2026-04-22 17:13 49.56005 14.76307 26117 ft 414 kts 142°
2026-04-22 17:14 49.52734 14.79436 26750 ft 418 kts 143°
2026-04-22 17:14 49.51086 14.80994 27038 ft 420 kts 143°
2026-04-22 17:14 49.48577 14.83359 27474 ft 423 kts 143°
2026-04-22 17:14 49.46061 14.85729 27906 ft 425 kts 143°
2026-04-22 17:15 49.44385 14.87305 28166 ft 427 kts 143°
2026-04-22 17:15 49.40979 14.90507 28710 ft 430 kts 143°
2026-04-22 17:15 49.38417 14.92913 29096 ft 432 kts 143°
2026-04-22 17:15 49.35865 14.95308 29224 ft 436 kts 143°
2026-04-22 17:16 49.30692 15.00153 29240 ft 435 kts 143°
2026-04-22 17:16 49.25522 15.04996 29241 ft 433 kts 143°
2026-04-22 17:17 49.20415 15.09827 29240 ft 434 kts 143°
2026-04-22 17:17 49.15260 15.14675 29238 ft 435 kts 143°
2026-04-22 17:18 49.10093 15.19515 29237 ft 435 kts 144°
2026-04-22 17:18 49.04939 15.24290 29236 ft 436 kts 144°
2026-04-22 17:19 48.99724 15.29104 29426 ft 441 kts 144°
2026-04-22 17:19 48.94476 15.33940 30364 ft 439 kts 144°
2026-04-22 17:20 48.89376 15.38977 31080 ft 438 kts 138°
2026-04-22 17:20 48.84835 15.45108 31809 ft 437 kts 131°
2026-04-22 17:21 48.82641 15.48321 32172 ft 438 kts 132°
2026-04-22 17:21 48.78226 15.54747 32866 ft 440 kts 132°
2026-04-22 17:22 48.73809 15.61135 33533 ft 441 kts 132°
2026-04-22 17:22 48.71583 15.64345 33863 ft 442 kts 133°
2026-04-22 17:22 48.67103 15.70789 34519 ft 444 kts 133°
2026-04-22 17:23 48.64887 15.73970 34838 ft 444 kts 133°
2026-04-22 17:23 48.60413 15.80495 35207 ft 449 kts 133°
2026-04-22 17:23 48.58158 15.83763 35213 ft 450 kts 133°
2026-04-22 17:24 48.53668 15.90233 35215 ft 446 kts 133°
2026-04-22 17:24 48.49160 15.96693 35213 ft 446 kts 133°
2026-04-22 17:25 48.44657 16.03123 35211 ft 446 kts 133°
2026-04-22 17:25 48.40142 16.09552 35209 ft 446 kts 133°
2026-04-22 17:26 48.35627 16.15962 35205 ft 446 kts 133°
2026-04-22 17:26 48.31102 16.22371 35204 ft 446 kts 133°
2026-04-22 17:27 48.26596 16.28737 35203 ft 446 kts 133°
2026-04-22 17:27 48.22057 16.35133 35202 ft 446 kts 133°
2026-04-22 17:28 48.17520 16.41509 35201 ft 446 kts 134°
2026-04-22 17:28 48.13010 16.47833 35200 ft 446 kts 134°
2026-04-22 17:29 48.08485 16.54161 35200 ft 446 kts 134°
2026-04-22 17:29 48.03951 16.60487 35200 ft 445 kts 134°
2026-04-22 17:30 47.99411 16.66804 35198 ft 445 kts 134°
2026-04-22 17:30 47.94879 16.73103 35195 ft 449 kts 134°
2026-04-22 17:31 47.90316 16.79487 35191 ft 449 kts 134°
2026-04-22 17:31 47.85726 16.85815 35188 ft 449 kts 134°
2026-04-22 17:32 47.81156 16.92087 35185 ft 449 kts 135°
2026-04-22 17:32 47.76552 16.98392 35183 ft 449 kts 135°
2026-04-22 17:33 47.72192 17.04937 35181 ft 446 kts 126°
2026-04-22 17:33 47.68726 17.12532 35180 ft 442 kts 117°
2026-04-22 17:34 47.65727 17.20454 35178 ft 441 kts 116°
2026-04-22 17:34 47.62715 17.28397 35173 ft 441 kts 116°
2026-04-22 17:35 47.59687 17.36330 35172 ft 441 kts 116°
2026-04-22 17:35 47.56656 17.44235 35172 ft 441 kts 117°
2026-04-22 17:36 47.53640 17.52140 35171 ft 440 kts 116°
2026-04-22 17:36 47.50682 17.60013 35171 ft 440 kts 116°
2026-04-22 17:37 47.47674 17.67910 35171 ft 440 kts 116°
2026-04-22 17:37 47.44649 17.75790 35170 ft 440 kts 116°
2026-04-22 17:38 47.41611 17.83667 35171 ft 440 kts 117°
2026-04-22 17:38 47.38590 17.91470 35169 ft 440 kts 117°
2026-04-22 17:39 47.35542 17.99319 35169 ft 441 kts 117°
2026-04-22 17:40 47.30973 18.11039 35166 ft 440 kts 117°
2026-04-22 17:40 47.27903 18.18884 35164 ft 441 kts 117°
2026-04-22 17:41 47.24828 18.26719 35159 ft 441 kts 117°
2026-04-22 17:41 47.21768 18.34496 35150 ft 442 kts 117°
2026-04-22 17:42 47.18674 18.42334 35142 ft 442 kts 117°
2026-04-22 17:42 47.15597 18.50107 35137 ft 442 kts 117°
2026-04-22 17:43 47.12490 18.57934 35134 ft 442 kts 117°
2026-04-22 17:43 47.09380 18.65747 35131 ft 443 kts 118°
2026-04-22 17:44 47.06278 18.73516 35128 ft 443 kts 118°
2026-04-22 17:44 47.03149 18.81331 35126 ft 443 kts 118°
2026-04-22 17:45 47.00539 18.87833 35125 ft 443 kts 118°
2026-04-22 17:45 46.96884 18.96910 35006 ft 445 kts 118°
2026-04-22 17:45 46.95309 19.00812 34607 ft 443 kts 118°
2026-04-22 17:46 46.93746 19.04680 34125 ft 439 kts 118°
2026-04-22 17:46 46.92213 19.08469 33656 ft 437 kts 118°
2026-04-22 17:46 46.90663 19.12293 33190 ft 434 kts 118°
2026-04-22 17:46 46.89136 19.16056 32869 ft 427 kts 118°
2026-04-22 17:47 46.87628 19.19768 32545 ft 421 kts 118°
2026-04-22 17:47 46.86138 19.23430 32158 ft 417 kts 118°
2026-04-22 17:47 46.84661 19.27055 31764 ft 413 kts 118°
2026-04-22 17:47 46.83219 19.30660 31383 ft 409 kts 117°
2026-04-22 17:48 46.82265 19.33027 31137 ft 407 kts 118°
2026-04-22 17:48 46.80358 19.37710 30637 ft 402 kts 118°
2026-04-22 17:48 46.78927 19.41198 30267 ft 399 kts 118°
2026-04-22 17:48 46.77502 19.44659 29906 ft 395 kts 118°
2026-04-22 17:49 46.76086 19.48091 29522 ft 392 kts 118°
2026-04-22 17:49 46.74679 19.51496 29110 ft 390 kts 118°
2026-04-22 17:49 46.73279 19.54880 28704 ft 388 kts 118°
2026-04-22 17:49 46.71888 19.58239 28307 ft 385 kts 118°
2026-04-22 17:50 46.70527 19.61527 27912 ft 383 kts 118°
2026-04-22 17:50 46.69155 19.64838 27579 ft 379 kts 118°
2026-04-22 17:50 46.67853 19.68111 27466 ft 367 kts 114°
2026-04-22 17:50 46.66780 19.71420 27319 ft 357 kts 110°
2026-04-22 17:51 46.65832 19.74753 27015 ft 353 kts 109°
2026-04-22 17:51 46.64907 19.78060 26648 ft 351 kts 109°
2026-04-22 17:51 46.63981 19.81342 26290 ft 350 kts 109°
2026-04-22 17:51 46.63054 19.84605 25944 ft 348 kts 109°
2026-04-22 17:52 46.62139 19.87806 25604 ft 346 kts 109°
2026-04-22 17:52 46.61215 19.91032 25257 ft 344 kts 109°
2026-04-22 17:52 46.60292 19.94239 24911 ft 342 kts 109°
2026-04-22 17:52 46.59373 19.97428 24568 ft 340 kts 110°
2026-04-22 17:53 46.58458 20.00596 24226 ft 338 kts 110°
2026-04-22 17:53 46.57542 20.03761 23851 ft 338 kts 110°
2026-04-22 17:53 46.56641 20.06869 23521 ft 336 kts 110°
2026-04-22 17:53 46.55735 20.09991 23188 ft 334 kts 110°
2026-04-22 17:54 46.54829 20.13111 22844 ft 333 kts 110°
2026-04-22 17:54 46.53948 20.16216 22515 ft 331 kts 109°
2026-04-22 17:54 46.53091 20.19265 22188 ft 329 kts 109°
2026-04-22 17:54 46.52221 20.22329 21852 ft 328 kts 109°
2026-04-22 17:55 46.51632 20.24390 21628 ft 327 kts 110°
2026-04-22 17:55 46.50474 20.28418 21194 ft 324 kts 110°
2026-04-22 17:55 46.49601 20.31442 20870 ft 323 kts 110°
2026-04-22 17:55 46.48732 20.34441 20549 ft 321 kts 110°
2026-04-22 17:56 46.47877 20.37385 20233 ft 320 kts 110°
2026-04-22 17:56 46.47019 20.40334 20142 ft 313 kts 110°
2026-04-22 17:56 46.46173 20.43234 19911 ft 311 kts 110°
2026-04-22 17:56 46.45327 20.46130 19664 ft 312 kts 110°
2026-04-22 17:57 46.44476 20.49043 19415 ft 315 kts 110°
2026-04-22 17:57 46.43617 20.51977 19165 ft 316 kts 110°
2026-04-22 17:57 46.42758 20.54905 18915 ft 315 kts 110°
2026-04-22 17:57 46.41915 20.57777 18658 ft 310 kts 110°
2026-04-22 17:58 46.41067 20.60662 18409 ft 311 kts 110°
2026-04-22 17:58 46.40217 20.63552 18158 ft 311 kts 110°
2026-04-22 17:58 46.39369 20.66430 17907 ft 310 kts 110°
2026-04-22 17:58 46.38552 20.69269 17660 ft 308 kts 110°
2026-04-22 17:59 46.37725 20.72133 17410 ft 307 kts 110°
2026-04-22 17:59 46.36892 20.74979 17160 ft 307 kts 110°
2026-04-22 17:59 46.36055 20.77816 16909 ft 306 kts 111°
2026-04-22 17:59 46.35215 20.80644 16658 ft 304 kts 111°
2026-04-22 18:00 46.34659 20.82511 16492 ft 304 kts 111°
2026-04-22 18:00 46.33821 20.85315 16242 ft 303 kts 111°
2026-04-22 18:00 46.32984 20.88114 15990 ft 302 kts 111°
2026-04-22 18:00 46.31880 20.91800 15660 ft 301 kts 111°
2026-04-22 18:01 46.31316 20.93677 15489 ft 300 kts 111°
2026-04-22 18:01 46.30497 20.96408 15243 ft 299 kts 111°
2026-04-22 18:01 46.29671 20.99157 14993 ft 298 kts 111°
2026-04-22 18:01 46.28845 21.01907 14742 ft 297 kts 111°
2026-04-22 18:02 46.28018 21.04663 14492 ft 299 kts 111°
2026-04-22 18:02 46.27181 21.07424 14251 ft 302 kts 113°
2026-04-22 18:02 46.26015 21.09915 13992 ft 306 kts 133°
2026-04-22 18:02 46.24285 21.11678 13885 ft 302 kts 152°
2026-04-22 18:03 46.22312 21.12691 13713 ft 297 kts 163°
2026-04-22 18:03 46.20347 21.13537 13422 ft 297 kts 163°
2026-04-22 18:03 46.18344 21.14156 13263 ft 291 kts 172°
2026-04-22 18:03 46.16347 21.14255 13086 ft 286 kts 187°
2026-04-22 18:04 46.14459 21.13436 12838 ft 283 kts 208°
2026-04-22 18:04 46.12926 21.11758 12570 ft 279 kts 229°
2026-04-22 18:04 46.11905 21.09411 12280 ft 275 kts 250°
2026-04-22 18:04 46.11584 21.06736 11976 ft 270 kts 278°
2026-04-22 18:05 46.12259 21.04287 11686 ft 262 kts 311°
2026-04-22 18:05 46.13730 21.02836 11387 ft 258 kts 345°
2026-04-22 18:05 46.15496 21.02852 11082 ft 256 kts 18°
2026-04-22 18:05 46.16938 21.04269 10797 ft 258 kts 46°
2026-04-22 18:06 46.18033 21.06329 10530 ft 258 kts 52°
2026-04-22 18:06 46.19090 21.08425 10232 ft 258 kts 52°
2026-04-22 18:06 46.20150 21.10526 9899 ft 260 kts 52°
2026-04-22 18:06 46.21188 21.12671 9669 ft 259 kts 58°
2026-04-22 18:07 46.21702 21.15110 9639 ft 260 kts 85°
2026-04-22 18:07 46.21332 21.17711 9640 ft 271 kts 113°
2026-04-22 18:07 46.20139 21.19827 9642 ft 279 kts 141°
2026-04-22 18:07 46.18366 21.20985 9632 ft 285 kts 167°
2026-04-22 18:08 46.16403 21.20980 9629 ft 281 kts 193°
2026-04-22 18:08 46.14665 21.19871 9634 ft 276 kts 216°
2026-04-22 18:08 46.13189 21.18089 9646 ft 279 kts 224°
2026-04-22 18:08 46.11700 21.16285 9601 ft 278 kts 217°
2026-04-22 18:09 46.10014 21.14985 9461 ft 269 kts 201°
2026-04-22 18:09 46.08203 21.14412 9012 ft 266 kts 186°
2026-04-22 18:09 46.06383 21.14328 8895 ft 264 kts 180°
2026-04-22 18:09 46.04520 21.14407 8876 ft 271 kts 178°
2026-04-22 18:10 46.02621 21.14468 8795 ft 274 kts 179°
2026-04-22 18:10 46.00710 21.14494 8706 ft 273 kts 179°
2026-04-22 18:10 45.98813 21.14554 8614 ft 275 kts 174°
2026-04-22 18:10 45.96974 21.15298 8520 ft 275 kts 150°
2026-04-22 18:11 45.95545 21.17027 8430 ft 270 kts 125°
2026-04-22 18:11 45.94723 21.19417 8342 ft 265 kts 105°
2026-04-22 18:11 45.94259 21.21971 8253 ft 264 kts 101°
2026-04-22 18:11 45.93781 21.24531 8162 ft 264 kts 103°
2026-04-22 18:12 45.93245 21.27047 8073 ft 263 kts 104°
2026-04-22 18:12 45.92665 21.29538 7988 ft 263 kts 106°
2026-04-22 18:12 45.92067 21.32000 7905 ft 264 kts 106°
2026-04-22 18:12 45.91449 21.34493 7821 ft 264 kts 106°
2026-04-22 18:13 45.90828 21.36983 7735 ft 264 kts 105°
2026-04-22 18:13 45.90209 21.39448 7650 ft 261 kts 105°
2026-04-22 18:13 45.89594 21.41883 7565 ft 258 kts 105°
2026-04-22 18:13 45.88981 21.44304 7482 ft 256 kts 105°
2026-04-22 18:14 45.88378 21.46681 7404 ft 256 kts 105°
2026-04-22 18:14 45.87768 21.49088 7323 ft 256 kts 105°
2026-04-22 18:14 45.87161 21.51477 7249 ft 251 kts 105°
2026-04-22 18:14 45.86583 21.53754 7178 ft 232 kts 105°
2026-04-22 18:15 45.86055 21.55836 7083 ft 212 kts 104°
2026-04-22 18:15 45.85565 21.57770 6998 ft 202 kts 104°
2026-04-22 18:15 45.85098 21.59621 6964 ft 193 kts 104°
2026-04-22 18:15 45.84641 21.61425 6973 ft 193 kts 104°
2026-04-22 18:16 45.84178 21.63245 6989 ft 198 kts 104°
2026-04-22 18:16 45.83705 21.65104 6999 ft 198 kts 104°
2026-04-22 18:16 45.83231 21.66962 6998 ft 198 kts 104°
2026-04-22 18:16 45.82760 21.68812 6996 ft 196 kts 104°
2026-04-22 18:17 45.82292 21.70651 6996 ft 196 kts 104°
2026-04-22 18:17 45.81825 21.72489 6998 ft 196 kts 104°
2026-04-22 18:17 45.81360 21.74313 6999 ft 197 kts 104°
2026-04-22 18:17 45.80887 21.76160 6997 ft 197 kts 104°
2026-04-22 18:18 45.80413 21.78010 7003 ft 197 kts 104°
2026-04-22 18:18 45.79947 21.79830 7011 ft 194 kts 104°
2026-04-22 18:18 45.79489 21.81623 6997 ft 189 kts 104°
2026-04-22 18:18 45.79045 21.83365 6983 ft 183 kts 104°
2026-04-22 18:19 45.78610 21.85061 6973 ft 179 kts 104°
2026-04-22 18:19 45.78176 21.86749 6990 ft 182 kts 104°
2026-04-22 18:19 45.77741 21.88445 6994 ft 181 kts 104°
2026-04-22 18:19 45.77308 21.90113 6996 ft 180 kts 105°
2026-04-22 18:20 45.76607 21.91636 6958 ft 190 kts 134°
2026-04-22 18:20 45.75381 21.92383 6989 ft 198 kts 171°
2026-04-22 18:20 45.74046 21.92038 7005 ft 198 kts 205°
2026-04-22 18:20 45.72882 21.91039 7041 ft 194 kts 211°
2026-04-22 18:21 45.71686 21.90146 7021 ft 193 kts 206°
2026-04-22 18:21 45.70454 21.89406 7003 ft 191 kts 202°
2026-04-22 18:21 45.69267 21.88568 6862 ft 192 kts 222°
2026-04-22 18:21 45.68672 21.86979 6526 ft 182 kts 270°
2026-04-22 18:22 45.68793 21.85232 6249 ft 173 kts 286°
2026-04-22 18:22 45.69057 21.83578 5921 ft 168 kts 291°
2026-04-22 18:22 45.69351 21.81967 5594 ft 166 kts 290°
2026-04-22 18:22 45.69610 21.80378 5355 ft 157 kts 291°
2026-04-22 18:23 45.69864 21.78948 5703 ft 150 kts 292°
2026-04-22 18:23 45.70152 21.77474 6171 ft 159 kts 294°
2026-04-22 18:23 45.70489 21.75900 6127 ft 170 kts 294°
2026-04-22 18:24 45.71230 21.72697 5601 ft 166 kts 296°
2026-04-22 18:24 45.71601 21.71162 5377 ft 164 kts 296°
2026-04-22 18:24 45.72390 21.67965 4937 ft 176 kts 296°
2026-04-22 18:25 45.72800 21.66321 4699 ft 175 kts 296°
2026-04-22 18:25 45.73210 21.64688 4460 ft 173 kts 296°
2026-04-22 18:25 45.73616 21.63071 4237 ft 172 kts 296°
2026-04-22 18:26 45.74418 21.59884 3782 ft 172 kts 295°
2026-04-22 18:26 45.74825 21.58267 3551 ft 170 kts 295°
2026-04-22 18:26 45.75224 21.56684 3325 ft 168 kts 295°
2026-04-22 18:26 45.75618 21.55119 3105 ft 168 kts 295°
2026-04-22 18:27 45.76015 21.53540 2883 ft 170 kts 295°
2026-04-22 18:27 45.76413 21.51962 2657 ft 167 kts 295°
2026-04-22 18:27 45.76807 21.50397 2434 ft 166 kts 294°
2026-04-22 18:27 45.77197 21.48844 2216 ft 166 kts 294°
2026-04-22 18:28 45.77588 21.47291 1997 ft 165 kts 294°
2026-04-22 18:28 45.77975 21.45756 1782 ft 166 kts 293°
2026-04-22 18:28 45.78367 21.44195 1557 ft 166 kts 292°
2026-04-22 18:28 45.78757 21.42644 1338 ft 165 kts 291°
2026-04-22 18:29 45.79144 21.41105 1120 ft 164 kts 291°
2026-04-22 18:29 45.79532 21.39561 901 ft 163 kts 291°
2026-04-22 18:29 45.79918 21.38026 685 ft 163 kts 290°
2026-04-22 18:29 45.80297 21.36520 472 ft 162 kts 290°
2026-04-22 18:30 45.80668 21.35040 357 ft 137 kts 289°
2026-04-22 18:30 45.81010 21.33689 356 ft 57 kts 289°
2026-04-22 18:30 45.81145 21.33155 356 ft 54 kts 291°
2026-04-22 18:31 45.81265 21.32680 356 ft 47 kts 289°
2026-04-22 18:31 45.81363 21.32267 356 ft 33 kts 289°
2026-04-22 18:31 45.81392 21.32147 356 ft 14 kts 289°
2026-04-22 18:31 45.81363 21.32059 356 ft 12 kts 197°
2026-04-22 18:32 45.81276 21.32025 356 ft 14 kts 200°
2026-04-22 18:32 45.81241 21.32008 356 ft 0 kts 198°
2026-04-22 18:32 45.81240 21.32007 356 ft 2 kts 198°
2026-04-22 18:32 45.81202 21.32031 356 ft 7 kts 116°
2026-04-22 18:33 45.81165 21.32101 356 ft 12 kts 166°
2026-04-22 18:33 45.81093 21.32074 356 ft 6 kts 200°
2026-04-22 18:33 45.81091 21.32073 356 ft 0 kts 200°
2026-04-22 18:34 45.81090 21.32073 356 ft 0 kts 200°
2026-04-22 18:35 45.81086 21.32070 356 ft 0 kts 200°
2026-04-22 18:36 45.81085 21.32070 356 ft 0 kts 200°